[[{"header":{"parameterUnit":"m.s-1","parameterCategory":1,"la1":30.2991,"la2":30.254,"lo1":-89.0895,"lo2":-89.0444,"dy":0.0017,"dx":0.0017,"nx":28,"ny":28,"refTime":"2024-04-21T03:00:00:Z","depth":0,"parameterNumber":2,"parameterNumberName":"U-component_of_WINDS"},"data":[0,0,0,0,0,0,0,0,0,0,0,0,0,0,0,0,0,0,0,0,0,0,0,0,0,0,0,0,0,0,0,0,0,0,0,0,0,0,0,0,0,0,0,0,0,0,0,0,0,0,0,0,0,0,0,0,0,0,1.6725,1.6725,0,1.6753,1.6753,1.6754,1.676,1.676,1.676,1.676,1.6786,1.6787,1.6788,0,0,0,0,0,0,0,0,0,0,0,0,0,1.6676,1.6677,1.6724,1.6725,1.6725,1.6753,1.6753,1.6754,1.676,1.676,1.676,1.676,1.6786,1.6787,1.6788,0,0,0,0,0,0,0,0,0,0,0,0,0,1.67,1.6677,1.6724,1.6732,1.6733,1.6753,1.6753,1.6754,1.676,1.676,1.676,1.676,1.6785,1.6787,1.6788,1.6802,0,0,1.6792,1.6793,0,0,0,0,0,0,0,0,1.6699,1.6702,1.673,1.6731,1.6733,1.6753,1.6746,1.677,1.676,1.675,1.676,1.6759,1.6775,1.6777,1.6783,1.6803,1.6804,1.6792,1.6793,1.6794,1.6794,0,0,0,0,0,0,0,1.6697,1.6701,1.6736,1.6731,1.6732,1.6734,1.6737,1.6751,1.6764,1.6751,1.6751,1.6755,1.6776,1.6782,1.6784,1.6804,1.6792,1.6793,1.6794,1.6795,1.6842,1.6842,0,0,0,0,0,0,1.6694,1.6699,1.6735,1.6737,1.6715,1.6735,1.6739,1.6747,1.6763,1.6766,1.6755,1.6755,1.678,1.6782,1.6785,1.6805,1.6794,1.6795,1.6796,1.6841,1.6842,1.6842,0,0,0,0,0,0,1.6693,1.6697,1.6734,1.6718,1.6723,1.6736,1.6745,1.6747,1.6754,1.6767,1.6769,1.6759,1.678,1.6783,1.6799,1.6806,1.6795,1.6797,1.6841,1.6841,1.6842,1.6844,0,0,0,0,0,0,1.6692,1.6697,1.6702,1.6718,1.6724,1.6747,1.6746,1.6748,1.6756,1.6756,1.6771,1.6773,1.678,1.6797,1.68,1.6808,1.6798,1.684,1.6841,1.6842,1.6843,1.6844,1.6846,0,0,0,0,0,1.669,1.67,1.6702,1.6706,1.673,1.6747,1.675,1.6758,1.6757,1.6762,1.6772,1.6773,1.6805,1.6798,1.6802,1.681,1.684,1.6841,1.6842,1.6843,1.6844,1.6846,0,0,0,0,0,0,1.6682,1.6702,1.6705,1.672,1.6732,1.6748,1.6755,1.6759,1.6771,1.6771,1.678,1.6783,1.6799,1.6806,1.6799,1.6827,1.6822,1.6824,1.6821,1.6823,1.6824,1.6823,1.6799,0,0,0,0,0,1.6682,1.6694,1.6711,1.6723,1.6729,1.6741,1.6749,1.6755,1.6767,1.6772,1.6782,1.6794,1.6807,1.6815,1.6828,1.6844,1.6849,1.6852,1.6853,1.6854,1.6856,1.6869,1.6872,1.6846,1.6846,1.6846,0,0,1.6682,1.6694,1.6701,1.6722,1.6732,1.6745,1.6745,1.6758,1.6769,1.6774,1.679,1.6799,1.6812,1.683,1.6838,1.6836,1.6864,1.6855,1.6856,1.6857,1.687,1.6873,1.6875,1.6846,1.6846,1.6846,0,0,1.6689,1.6699,1.6711,1.6723,1.6739,1.6748,1.6751,1.6768,1.6774,1.6792,1.6797,1.6809,1.683,1.6842,1.685,1.6867,1.6869,1.687,1.6877,1.6889,1.6892,1.6893,1.6902,1.6905,1.6872,1.6872,1.6872,0,1.6686,1.6707,1.6717,1.6732,1.6742,1.6749,1.6763,1.6773,1.6792,1.6799,1.6797,1.6828,1.6837,1.6859,1.6864,1.6869,1.6875,1.6869,1.6891,1.6893,1.6894,1.6903,1.6906,1.6872,1.6872,1.6872,1.6872,0,1.6705,1.6719,1.6728,1.6749,1.676,1.6773,1.6787,1.6797,1.6803,1.6812,1.6832,1.6844,1.6861,1.6867,1.6871,1.6891,1.689,1.6889,1.6885,1.6897,1.6905,1.6908,1.6872,1.6872,1.6872,1.6872,0,0,1.6704,1.6735,1.6738,1.6749,1.677,1.6782,1.6797,1.6816,1.6826,1.6839,1.6854,1.6874,1.6876,1.6885,1.6891,1.6902,1.6919,1.6901,1.6901,1.6906,1.6946,1.6947,1.6951,1.6921,1.6922,1.6922,1.6945,0,1.6716,1.6745,1.6757,1.678,1.6796,1.6805,1.6819,1.6834,1.6845,1.686,1.687,1.6886,1.6885,1.6891,1.6903,1.6914,1.6927,1.6913,1.6936,1.6937,1.6934,1.6955,1.6955,1.6977,1.6948,1.6949,1.6949,0,1.6731,1.6749,1.6775,1.6799,1.6805,1.6818,1.6838,1.6852,1.687,1.6877,1.6891,1.6897,1.6916,1.6911,1.6938,1.6928,1.6938,1.6946,1.6947,1.6951,1.6945,1.6961,1.6983,1.6987,1.6954,1.6953,1.6953,0,1.6732,1.6762,1.6782,1.6792,1.6818,1.6828,1.6839,1.6857,1.687,1.6887,1.6896,1.6915,1.6925,1.694,1.6953,1.6947,1.698,1.6975,1.6988,1.6988,1.6995,1.6994,1.7021,1.6998,1.6998,1.6998,1.6998,0,1.6744,1.676,1.6784,1.6796,1.6816,1.683,1.685,1.6862,1.6879,1.6895,1.6903,1.6919,1.6933,1.6951,1.696,1.6984,1.6987,1.6995,1.6998,1.6995,1.6995,1.7003,1.7003,1.6999,1.6999,1.6999,1.6998,0,1.6747,1.6763,1.6787,1.6812,1.6819,1.6833,1.6855,1.6869,1.6881,1.6902,1.6907,1.6927,1.6948,1.6963,1.6989,1.6996,1.7022,1.7023,1.7016,1.7018,1.7031,1.7031,1.7066,1.7073,1.7043,1.7043,1.7044,0,1.6754,1.6768,1.6796,1.6808,1.6821,1.684,1.6854,1.6869,1.6883,1.6908,1.6919,1.6942,1.6961,1.6996,1.7012,1.7034,1.7037,1.7048,1.704,1.7039,1.7041,1.7041,1.7044,1.7049,1.705,1.705,1.705,0,1.6766,1.6775,1.6794,1.6818,1.6835,1.6854,1.6873,1.6883,1.6902,1.6917,1.6941,1.6956,1.6986,1.701,1.7034,1.7046,1.7053,1.7053,1.7058,1.7056,1.7053,1.7058,1.7022,1.7052,1.7052,1.7051,1.7051,1.7051,1.6772,1.6787,1.681,1.6833,1.685,1.6869,1.6885,1.6901,1.6921,1.6948,1.6956,1.6982,1.7004,1.7038,1.7051,1.7072,1.7071,1.7077,1.7079,1.708,1.7083,1.7049,1.7076,1.7076,1.7076,1.7076,1.7076,0,1.6787,1.6804,1.6825,1.6853,1.6873,1.6878,1.6901,1.6917,1.694,1.6961,1.6981,1.7011,1.7035,1.7055,1.708,1.7094,1.7098,1.71,1.71,1.7104,1.708,1.7075,1.7097,1.7097,1.7097,1.7097,1.7097,1.7097,1.6796,1.6822,1.6835,1.687,1.6887,1.6914,1.6927,1.6945,1.6963,1.6996,1.7017,1.7031,1.7053,1.7081,1.7104,1.711,1.712,1.7123,1.7129,1.7107,1.7105,1.7102,1.7098,1.7124,1.7124,1.7151,1.7151,1.7151]},{"header":{"parameterUnit":"m.s-1","parameterCategory":1,"la1":30.2991,"la2":30.254,"lo1":-89.0895,"lo2":-89.0444,"dy":0.0017,"dx":0.0017,"nx":28,"ny":28,"refTime":"2024-04-21T03:00:00:Z","depth":0,"parameterNumber":3,"parameterNumberName":"V-component_of_WINDS"},"data":[0,0,0,0,0,0,0,0,0,0,0,0,0,0,0,0,0,0,0,0,0,0,0,0,0,0,0,0,0,0,0,0,0,0,0,0,0,0,0,0,0,0,0,0,0,0,0,0,0,0,0,0,0,0,0,0,0,0,-6.1199,-6.1197,0,-6.1005,-6.1003,-6.1001,-6.0824,-6.0821,-6.0819,-6.0817,-6.0608,-6.0605,-6.0601,0,0,0,0,0,0,0,0,0,0,0,0,0,-6.1404,-6.1402,-6.1199,-6.1197,-6.1194,-6.1005,-6.1003,-6.1,-6.0824,-6.0821,-6.0819,-6.0816,-6.061,-6.0605,-6.0601,0,0,0,0,0,0,0,0,0,0,0,0,0,-6.1273,-6.1401,-6.1199,-6.1084,-6.1071,-6.1006,-6.1003,-6.0999,-6.0824,-6.0821,-6.0818,-6.0815,-6.0611,-6.0606,-6.06,-6.063,0,0,-6.0584,-6.0582,0,0,0,0,0,0,0,0,-6.1281,-6.1266,-6.1103,-6.1092,-6.1078,-6.0935,-6.0998,-6.0875,-6.0825,-6.0918,-6.0817,-6.0814,-6.0719,-6.0705,-6.0675,-6.0621,-6.0612,-6.0583,-6.058,-6.0578,-6.0576,0,0,0,0,0,0,0,-6.129,-6.1273,-6.1122,-6.1101,-6.1085,-6.1037,-6.1015,-6.0974,-6.0838,-6.091,-6.0896,-6.0876,-6.0711,-6.0681,-6.0669,-6.0609,-6.0584,-6.0579,-6.0575,-6.0573,-6.0561,-6.0564,0,0,0,0,0,0,-6.1319,-6.1282,-6.1128,-6.1116,-6.1174,-6.1036,-6.1012,-6.0984,-6.0838,-6.0813,-6.0879,-6.0869,-6.0691,-6.0675,-6.0661,-6.0681,-6.0578,-6.0573,-6.057,-6.0558,-6.0562,-6.0565,0,0,0,0,0,0,-6.1324,-6.1307,-6.1136,-6.1195,-6.117,-6.1036,-6.1007,-6.0982,-6.0951,-6.0816,-6.0789,-6.0873,-6.0688,-6.0668,-6.0638,-6.0671,-6.057,-6.0565,-6.0555,-6.056,-6.0564,-6.0726,0,0,0,0,0,0,-6.133,-6.131,-6.1323,-6.1197,-6.1168,-6.1122,-6.1009,-6.098,-6.0943,-6.0928,-6.0803,-6.0779,-6.0684,-6.0647,-6.0633,-6.0662,-6.0561,-6.0551,-6.0557,-6.0562,-6.0717,-6.0735,-6.0751,0,0,0,0,0,-6.1338,-6.1375,-6.1324,-6.1307,-6.1182,-6.1124,-6.1106,-6.0999,-6.0947,-6.0956,-6.0869,-6.0783,-6.0671,-6.0646,-6.0628,-6.0656,-6.0549,-6.0555,-6.0562,-6.0709,-6.0732,-6.0751,0,0,0,0,0,0,-6.1506,-6.1357,-6.1299,-6.1297,-6.1225,-6.1094,-6.1103,-6.1027,-6.0966,-6.0954,-6.082,-6.0793,-6.0777,-6.0713,-6.0688,-6.0674,-6.0598,-6.0601,-6.0716,-6.0736,-6.0753,-6.0766,-6.0557,0,0,0,0,0,-6.1543,-6.1512,-6.1382,-6.1393,-6.136,-6.1239,-6.1209,-6.1133,-6.1051,-6.1019,-6.0929,-6.085,-6.0795,-6.0763,-6.0706,-6.0708,-6.0674,-6.0718,-6.0735,-6.0749,-6.0753,-6.0742,-6.0758,-6.0587,-6.0587,-6.0587,0,0,-6.1619,-6.1533,-6.1522,-6.1424,-6.1359,-6.1325,-6.1214,-6.1184,-6.1156,-6.1013,-6.0979,-6.091,-6.0812,-6.0797,-6.0786,-6.0744,-6.0793,-6.0758,-6.0771,-6.0765,-6.075,-6.0767,-6.0781,-6.0591,-6.059,-6.059,0,0,-6.1738,-6.1673,-6.1673,-6.161,-6.1514,-6.1432,-6.1433,-6.1313,-6.1262,-6.1227,-6.1117,-6.108,-6.0992,-6.0924,-6.0879,-6.097,-6.0886,-6.0955,-6.1043,-6.1034,-6.1048,-6.1059,-6.1086,-6.1098,-6.096,-6.096,-6.096,0,-6.1843,-6.1792,-6.1681,-6.1657,-6.1615,-6.1487,-6.1482,-6.1425,-6.1314,-6.1286,-6.1242,-6.1125,-6.105,-6.1014,-6.1037,-6.1006,-6.0997,-6.0968,-6.1056,-6.1066,-6.1074,-6.1098,-6.1109,-6.0969,-6.0968,-6.0967,-6.0966,0,-6.1922,-6.1888,-6.1899,-6.1797,-6.1756,-6.1743,-6.1625,-6.1596,-6.1523,-6.1445,-6.1406,-6.1312,-6.1232,-6.1218,-6.1146,-6.117,-6.1147,-6.1082,-6.1001,-6.1101,-6.1121,-6.113,-6.0981,-6.0978,-6.0975,-6.0973,0,0,-6.2141,-6.1978,-6.1983,-6.1933,-6.1817,-6.1786,-6.1764,-6.1688,-6.1663,-6.159,-6.1564,-6.1491,-6.1428,-6.1376,-6.1295,-6.1288,-6.1359,-6.1221,-6.1217,-6.1246,-6.1372,-6.142,-6.1433,-6.1304,-6.1306,-6.1307,-6.1379,0,-6.2237,-6.2194,-6.2092,-6.2078,-6.2042,-6.1918,-6.1897,-6.1821,-6.1747,-6.1701,-6.1617,-6.1565,-6.149,-6.1456,-6.1445,-6.1353,-6.1381,-6.1347,-6.1272,-6.1271,-6.1297,-6.1444,-6.1494,-6.1567,-6.1386,-6.1388,-6.1389,0,-6.2344,-6.2281,-6.2264,-6.2146,-6.2127,-6.2111,-6.203,-6.1991,-6.1899,-6.1844,-6.1786,-6.1696,-6.166,-6.1589,-6.1533,-6.1512,-6.1474,-6.1424,-6.1424,-6.141,-6.1333,-6.1428,-6.1588,-6.1598,-6.1401,-6.14,-6.1399,0,-6.2499,-6.241,-6.2387,-6.2349,-6.2212,-6.2202,-6.2144,-6.2049,-6.2009,-6.1937,-6.1908,-6.1833,-6.179,-6.1731,-6.162,-6.158,-6.1574,-6.1495,-6.1522,-6.1525,-6.1523,-6.1524,-6.1675,-6.1508,-6.1508,-6.1508,-6.1508,0,-6.2615,-6.2608,-6.2454,-6.244,-6.2426,-6.2308,-6.2296,-6.2225,-6.2142,-6.2107,-6.1995,-6.1964,-6.1822,-6.1773,-6.1686,-6.1648,-6.1631,-6.1581,-6.1557,-6.1589,-6.1595,-6.156,-6.155,-6.1511,-6.151,-6.1509,-6.1509,0,-6.2785,-6.2682,-6.2648,-6.2521,-6.2489,-6.2484,-6.2373,-6.2351,-6.227,-6.2227,-6.2209,-6.208,-6.2016,-6.1901,-6.1803,-6.1743,-6.1722,-6.1684,-6.1754,-6.1739,-6.177,-6.1767,-6.19,-6.1909,-6.1742,-6.1744,-6.1746,0,-6.2863,-6.2855,-6.2728,-6.2699,-6.2645,-6.2599,-6.2557,-6.2439,-6.2399,-6.2292,-6.2281,-6.2209,-6.2144,-6.2045,-6.1939,-6.1862,-6.1818,-6.187,-6.1805,-6.1835,-6.1811,-6.1812,-6.1807,-6.1883,-6.1886,-6.1888,-6.189,0,-6.3012,-6.2961,-6.2908,-6.2836,-6.279,-6.2726,-6.2656,-6.2637,-6.2501,-6.2461,-6.2396,-6.2346,-6.2246,-6.2172,-6.2079,-6.2012,-6.1926,-6.1911,-6.1912,-6.1942,-6.1981,-6.1955,-6.1789,-6.1908,-6.1906,-6.1905,-6.1904,-6.1903,-6.3134,-6.3119,-6.3027,-6.297,-6.2905,-6.2842,-6.2814,-6.273,-6.2675,-6.2587,-6.2519,-6.2457,-6.2359,-6.2226,-6.2164,-6.2109,-6.2069,-6.2072,-6.2072,-6.2073,-6.2083,-6.1994,-6.2092,-6.2091,-6.209,-6.209,-6.2089,0,-6.3272,-6.3207,-6.3156,-6.3063,-6.3016,-6.2945,-6.2862,-6.2826,-6.2775,-6.2693,-6.2632,-6.2553,-6.2481,-6.2369,-6.2286,-6.2263,-6.2221,-6.2244,-6.2242,-6.2227,-6.2126,-6.2132,-6.228,-6.228,-6.228,-6.228,-6.228,-6.228,-6.3339,-6.3308,-6.3247,-6.3181,-6.3113,-6.3055,-6.3014,-6.2952,-6.2886,-6.2805,-6.2746,-6.2675,-6.2578,-6.2487,-6.2415,-6.2383,-6.2355,-6.239,-6.2345,-6.2253,-6.2235,-6.2218,-6.2222,-6.2387,-6.2387,-6.2449,-6.245,-6.2451]}]]